Regional Weather Roundup
Issued by NWS Lake Charles, LA

Home | Current Version | Previous Version | Text Only | Print | Product List | Glossary On
Versions: 1 2 3 4 5 6 7 8 9 10 11 12 13 14 15 16 17 18 19 20 21 22 23 24 25 26 27 28 29 30 31 32 33 34 35 36 37 38 39 40 41 42 43 44 45 46 47 48 49 50
810
ASUS44 KLCH 150010
RWRLCH
REGIONAL WEATHER ROUNDUP
NATIONAL WEATHER SERVICE LAKE CHARLES LA
600 PM CST THU DEC 14 2017

Note: "fair" indicates few or no clouds below 12,000 feet with no
significant weather and/or obstructions to visibility.


ACROSS SOUTHEAST TEXAS

CITY           SKY/WX    TMP DP  RH WIND       PRES   REMARKS
BEAUMONT       MOCLDY    57  47  69 CALM      29.99R
BEAUMONT CITY  FAIR      54  46  73 N5        30.00R
ORANGE         CLOUDY    59  50  71 N3        30.00R
JASPER         CLOUDY    50  46  86 CALM      30.03R
$$

ACROSS CENTRAL LOUISIANA

CITY           SKY/WX    TMP DP  RH WIND       PRES   REMARKS
LEESVILLE      CLOUDY    49  45  87 CALM      30.00R
FULLERTON      FAIR      49  46  90 CALM      29.98
ALEXANDRIA INT CLOUDY    48  41  76 CALM      29.99R
ESLER FIELD    CLOUDY    47  45  93 CALM      30.00R
DERIDDER       FAIR      50  46  85 CALM      30.02R
OAKDALE        CLOUDY    47  46  93 N3        30.00R FOG
OPELOUSAS      NOT AVBL
$$

ACROSS SOUTHWEST AND SOUTH CENTRAL LOUISIANA

CITY           SKY/WX    TMP DP  RH WIND       PRES   REMARKS
SULPHUR        CLOUDY    59  50  72 CALM      30.00R
LAKE CHARLES   CLOUDY    56  49  77 CALM      29.99R
CHENNAULT INT  MOCLDY    59  46  63 CALM      29.99R
CAMERON PHI    CLOUDY    59  54  82 CALM      29.99R
DEQUINCY       FAIR      53  48  85 CALM      30.00R
JENNINGS       CLOUDY    57  47  69 CALM      29.99R
LAFAYETTE      CLOUDY    55  50  83 CALM      29.99R
NEW IBERIA     MOCLDY    55  47  74 CALM      30.00R
ABBEVILLE      FAIR      53  51  92 CALM      30.00R
PATTERSON      PTCLDY    55  51  86 CALM      30.01R
SALT POINT       N/A     54  51  90 CALM      29.99R
$$

SELECTED SITES ACROSS THE REGION

CITY           SKY/WX    TMP DP  RH WIND       PRES   REMARKS
HOUSTON BUSH   CLOUDY    57  45  64 NW3       30.00R
HOUSTON HOBBY  CLOUDY    61  40  45 NW6       29.98R
GALVESTON      CLOUDY    61  53  75 CALM      29.99R
COLLEGE STAT   MOCLDY    56  40  55 N5        30.02R
CONROE         PTCLDY    51  48  89 CALM      30.01R
HUNTSVILLE     CLOUDY    52  45  77 CALM      30.01R
LUFKIN         CLOUDY    50  44  80 CALM      30.02R
SHREVEPORT     CLOUDY    54  35  48 N3        30.03R
MONROE         CLOUDY    50  40  68 CALM      30.03R
NATCHEZ MS     CLOUDY    48  41  76 CALM      30.01R
BATON ROUGE    CLOUDY    54  45  71 NE3       29.99R
N.O. INTL ARPT CLOUDY    58  50  75 S5        30.01R
SLIDELL        PTCLDY    52  48  86 CALM      30.00R
$$

MARINE REPORTS

STATION/POSITION TIME  SKY/WX   TEMP    WIND        PRES    VSBY
                                AIR SEA DIR/SP/G
                 (UTC)          (F)     (DEG/KT/KT) (MB)    (MI)
BUOY 30 S HIGH I 2250            61 61   50/  2/  2 1015.0
WVE H/P(F/S)=  1

SEA RIM ST PARK  0000            60     200/  3/  3 1016.0R
PORT ARTHUR      2348            58 57  150/  4/  5 1015.3R
SABINE PASS N    2348            59 60  190/  2/  2 1016.7R
TEXAS POINT      NOT AVBL
CALCASIEU PASS   2348            59 61  180/  2/  3 1014.3R
LK CHARLES BEACH 2348            61 58              1014.9R
MARSH ISLAND     2300            58                   N/A
FRESH WATER LOCK 2348            56 57   90/  3/  3 1015.5R
AMERADA PASS     2348            57 54     CALM     1015.5R
$$




USA.gov is the U.S. government's official web portal to all federal, state and local government web resources and services.